Update:The ARIANE 5 rocket body re-entered the Earths atmosphere on the 21st November, 2012 @ 23:14 GMT ± 7 minutes.
Inclination: 3.21°
Revolution Number: 20275
Predicted Location: 3°S, 21°E
An ARIANE 5 rocket body that was launched on the 12th July, 2001, from Kourou, French Guiana, for the Artemis satellite mission is predicted to re-enter the Earths atmosphere on the 21st November, 2012 @ 22:12 GMT ± 24 hours.
ARIANE 5 RB 1 26865U 01029C 12324.54192396 .11171615 -29131-4 48614-3 0 665 2 26865 003.2082 153.4253 0558473 011.0416 272.0585 15.19689530202383
Period: 96.17 minutesInclination: 3.21° Apogee: 1019 kmPerigee: 131 kmRevolution Number: 20278Predicted Location: 1.4°N, 128.1°E